SCP
-0 -0 0 0 0 0 0 0 0 0 0 0 0 0 0 0 0 0 0 0 0 0 0 0 0 0 0 -0 0 0 0 0 0 0 0 0 0 0 0 0 0 0 0
0 0 0 0 0 0 0 0 0 0 0 0 0 0 0 0 0 0 0 0 0 0 0 0 0 0 0 0 0 0 0 0 0 0 0 0 0 0 0 0 0 0 0
0 0 0 0 0 0 0 0 0 0 0 0 0 0 0 0 0 0 0 0 0 0 0 0 0 0 0 0 0 0 0 0 0 -0 -0 -0 0 0 0 0 0 0 0
0 0 0 0 0 0 0 0 0 0 0 0 0 0 0 0 0 0 0 0 0 0 0 0 0 0 0 0 0 0 0 0 0 0 -0 -0 -0 -0 0 0 0 0 0
0 0 0 0 0 0 0 0 0 0 0 0 0 0 0 0 0 0 0 0 0 0 0 0 0 0 0 0 0 0 0 0 0 0 0 -0 0 0 0 0 0 0 0
0 0 0 0 0 0 0 -0 0 -0 -0 -0 -0 -0 0 0 0 0 0 0 0 0 0 0 0 0 0 0 0 0 0 0 0 0 0 0 0 0 0 0 0 0 0
0 0 0 0 0 -0 -0 -0 0 -0 -0 0 0 0 0 0 0 0 0 0 0 0 0 0 0 0 0 0 0 0 0 0 0 0 0 0 0 0 0 0 0 0 0
0 0 0 0 -0 -0 -0 0 0 0 0 0 0 0 0 0 0 0 0 0 0 0 0 0 0 0 0 0 0 0 0 0 0 0 0 0 0 0 0 0 0 0 0
0 0 0 0 0 0 -0 0 0 0 0 0 0 0 0 0 0 0 0 0 0 0 0 0 0 0 0 0 0 0 0 0 0 0 0 0 0 0 0 0 0 0 0
0 0 0 0 0 0 0 0 0 0 0 0 0 0 0 0 0 0 0 0 0 0 0 0 0 0 0 0 0 0 0 0 0 0 0 0 0 0 0 0 -0 0 0
0 0 0 0 0 0 0 0 0 0 0 0 0 0 0 0 0 0 0 0 0 -0 -0 0 -0 0 0 0 0 0 0 0 0 0 0 0 0 0 0 0 -0 0 0
0 0 0 0 0 0 0 0 0 0 0 0 0 0 0 0 0 0 0 0 0 0 0 0 0 0 0 0 0 0 0 0 0 0 0 0 0 0 0 -0 -0 -0 0
0 0 0 0 0 0 0 0 0 0 0 0 0 0 0 0 0 0 0 0 0 0 0 0 0 0 0 0 0 0 0 0 0 0 0 0 0 0 -0 -0 -0 -0 -0
0 0 0 0 0 0 0 0 0 0 0 0 0 0 0 0 0 0 0 0 0 0 0 0 0 0 0 0 0 0 0 0 0 0 0 0 -0 -0 -0 -0 -0 -0 -0
0 0 0 0 0 0 0 0 0 0 0 0 0 0 0 0 0 0 0 0 0 0 0 0 0 0 0 0 0 0 0 0 0 0 -0 -0 0 -0 -0 -0 0 0 -0
0 0 0 0 0 0 0 0 0 0 0 0 0 0 0 0 0 0 0 0 0 0 0 0 0 0 0 -0 -0 0 -0 -0 -0 -0 -0 -0 -0 -0 0 0 0 0 -0
0 0 0 0 0 0 0 0 0 0 0 0 0 0 0 0 0 0 0 0 0 0 0 0 0 0 0 -0 -0 -0 0 0 0 -0 -0 -0 -0 0 0 0 -0 -0 -0
0 0 0 0 0 0 0 0 0 0 0 0 0 0 0 0 0 0 0 0 0 0 0 0 -0 0 0 -0 -0 0 0 0 -0 -0 0 0 0 0 0 0 0 0 0
0 0 0 0 0 0 0 0 0 0 0 0 0 0 0 0 0 0 0 0 0 0 0 0 0 0 0 0 0 0 0 -0 0 0 0 0 0 0 0 0 0 0 0
0 0 0 0 0 0 0 0 0 0 0 0 0 0 0 0 0 0 0 0 0 0 0 0 0 0 0 0 0 0 0 0 0 0 0 0 0 0 0 0 0 0 0
0 0 0 0 0 0 -0 -0 0 0 0 0 0 0 0 0 0 0 0 0 0 0 0 0 0 0 0 0 0 0 0 0 0 0 0 0 0 0 0 0 0 0 0
0 0 0 0 0 0 -0 -0 -0 0 0 0 0 0 0 0 0 0 0 0 0 0 0 0 0 0 0 0 0 0 0 0 0 0 0 0 0 0 0 0 0 0 0
0 0 0 0 0 -0 -0 -0 0 0 0 0 0 0 0 0 0 0 0 0 0 0 0 0 0 0 0 0 0 0 0 0 0 0 0 0 0 0 -0 -0 0 -0 -0
0 -0 0 0 0 -0 -0 -0 0 0 0 0 0 0 0 0 0 0 0 0 0 0 0 0 0 0 0 0 0 0 0 0 0 0 -0 0 0 0 0 0 0 0 0
0 0 -0 0 -0 -0 0 0 0 0 0 0 0 0 0 0 0 0 0 0 0 0 0 0 0 0 0 0 0 0 0 0 0 0 0 0 0 0 0 0 0 0 0
0 0 -0 -0 -0 0 0 0 0 0 0 0 0 0 0 0 0 0 0 0 0 0 0 0 0 0 0 0 0 0 0 0 0 0 0 0 0 0 0 0 0 0 0
Wind_Speed_500mb
39 39 36 34 35 32 26 19 11 5 4 10 14 6 32 32 29 23 24 28 32 39 42 36 42 49 47 54 57 40 32 27 31 35 42 36 17 1 25 21 19 21 29
44 39 34 35 35 27 24 19 13 10 15 10 13 25 26 19 20 21 24 26 28 35 26 36 38 39 47 50 38 26 27 27 28 31 27 29 20 42 27 27 17 24 31
42 43 39 31 29 28 21 17 11 7 2 10 15 19 19 26 28 40 31 28 28 27 34 36 35 34 39 47 27 19 23 27 25 25 22 14 14 55 36 35 28 28 27
40 37 36 32 25 30 18 19 20 10 20 21 24 30 26 21 33 33 36 34 35 39 29 30 27 28 36 34 24 21 21 19 23 29 23 20 20 20 31 46 37 26 27
41 30 28 22 21 19 19 20 19 24 23 25 31 43 40 35 41 43 41 29 25 24 26 26 21 28 33 27 26 20 22 19 23 25 29 27 27 27 34 42 52 36 35
41 37 35 33 31 31 31 32 33 30 45 41 39 27 30 35 41 40 34 26 17 25 23 22 27 28 34 22 19 23 24 22 21 24 20 18 24 30 33 40 49 38 37
35 29 28 34 28 28 29 27 29 42 38 34 30 33 34 35 35 39 37 34 32 31 29 25 26 27 25 25 23 23 21 18 19 18 18 15 14 23 28 34 37 37 35
29 24 24 35 25 25 24 34 34 29 29 37 32 30 40 37 39 34 33 35 32 25 21 27 24 22 25 22 26 24 16 16 15 14 19 22 21 14 18 28 30 36 34
20 10 22 23 23 27 25 32 26 37 47 45 38 39 37 38 39 35 36 33 35 33 30 32 31 32 31 25 26 18 15 14 10 9 12 20 16 15 22 27 25 23 25
11 22 22 20 38 38 21 25 39 43 38 39 40 42 44 45 36 36 39 40 36 40 35 28 24 23 21 22 12 9 9 7 7 15 16 16 20 17 23 31 34 23 23
9 18 17 25 17 15 32 43 37 34 39 40 43 42 43 53 47 28 28 31 28 27 32 32 24 17 13 7 5 4 6 12 16 19 19 14 17 22 30 36 43 17 20
8 13 22 17 26 41 31 35 35 36 39 44 45 42 42 45 41 28 28 31 28 26 30 28 22 18 17 11 10 5 4 10 15 19 15 11 16 23 33 35 35 17 20
10 15 15 29 38 29 32 28 36 37 34 38 37 43 45 43 41 36 27 22 27 23 25 28 21 15 13 4 4 8 12 16 19 19 11 12 17 25 32 33 27 9 14
25 25 34 28 25 20 21 35 41 34 43 42 36 46 42 44 34 28 24 22 26 27 19 19 15 15 11 9 18 20 21 14 11 9 11 15 21 31 25 29 18 12 11
28 26 27 23 27 33 33 39 36 43 37 40 35 34 38 37 33 28 26 23 25 21 11 15 15 13 14 18 26 26 23 18 11 5 11 16 24 19 24 20 19 13 7
25 28 27 31 36 37 37 38 37 37 39 35 36 35 29 33 32 30 27 28 24 18 15 20 21 21 19 21 21 21 13 5 3 6 11 15 19 23 22 12 10 8 7
27 32 34 33 38 40 31 33 35 33 33 32 33 34 35 39 38 33 30 28 24 21 20 24 21 17 15 16 17 14 13 9 2 8 14 18 12 9 8 5 5 7 11
34 34 30 31 34 34 36 33 31 34 35 32 30 31 44 41 37 37 33 28 28 23 15 18 21 19 19 18 23 21 17 11 12 16 10 13 12 11 9 12 15 21 19
30 30 24 27 27 27 33 33 29 37 34 30 31 42 43 36 38 40 38 29 29 30 29 27 26 28 26 18 12 11 8 10 13 14 15 18 14 14 19 21 23 24 23
31 30 29 27 28 31 34 30 31 31 30 28 39 35 39 38 38 39 44 45 40 34 30 26 26 28 25 24 20 20 20 19 27 27 24 22 22 26 28 25 23 26 21
24 27 29 29 32 35 37 31 27 34 30 30 30 37 36 39 40 35 35 38 38 36 34 31 30 32 33 33 30 28 35 40 39 37 34 33 29 28 28 28 25 22 20
32 35 27 29 29 32 33 32 31 28 26 28 32 33 36 41 39 34 30 33 34 39 42 44 45 47 49 50 48 45 40 39 37 38 37 31 23 20 23 25 17 16 28
26 33 26 31 32 32 32 36 34 32 31 35 38 37 37 37 39 36 38 41 40 42 43 43 39 35 36 37 37 37 38 37 50 51 47 43 39 42 59 64 65 58 59
30 32 33 33 35 35 32 29 32 29 36 46 48 50 51 46 41 39 40 36 33 37 38 42 43 40 39 38 38 39 54 75 61 64 74 74 71 56 51 49 46 39 39
23 24 28 26 31 32 34 36 31 29 36 38 36 36 36 37 37 39 40 41 43 44 55 59 59 69 85 90 85 71 59 54 53 50 48 45 46 48 48 45 42 38 34
20 20 21 23 31 29 31 34 31 26 33 33 33 33 33 32 34 39 42 42 48 71 65 63 68 70 69 57 50 44 40 37 39 43 47 48 48 46 45 40 36 36 35
Wind_Direction_500mb
94 93 105 123 130 125 133 138 153 185 191 180 205 255 330 318 306 311 307 300 295 297 296 297 318 321 325 334 334 332 338 348 350 343 346 1 2 182 355 5 7 1 343
93 87 89 93 109 116 120 121 121 144 189 245 272 339 346 353 339 318 305 297 288 291 287 315 315 321 326 332 331 332 338 344 353 351 347 346 5 344 2 5 20 348 6
96 102 108 110 121 117 111 82 82 62 336 343 323 330 329 323 322 322 306 310 308 296 304 312 303 316 320 329 319 318 333 336 357 353 344 343 331 334 337 355 354 347 358
93 104 108 116 100 106 93 67 58 46 7 2 349 341 322 324 320 314 317 315 309 309 296 291 305 302 318 326 306 310 315 334 332 347 348 342 342 350 324 346 357 345 355
94 85 73 66 56 47 46 39 34 36 27 15 357 339 328 320 313 313 313 301 291 299 314 308 300 303 317 316 300 310 314 321 321 332 325 346 357 358 347 341 355 11 13
72 74 67 57 48 37 27 16 6 0 343 342 354 343 319 319 319 320 311 312 305 313 313 303 309 322 326 313 314 316 313 311 312 321 334 359 341 337 335 340 350 349 8
75 66 55 35 29 23 21 16 5 2 3 350 336 321 320 328 319 316 316 315 311 293 308 307 313 314 321 316 319 311 311 309 299 321 350 350 331 324 323 339 340 340 352
81 65 38 13 17 13 15 357 1 0 348 342 340 336 335 328 326 323 321 323 317 311 309 307 295 305 303 302 299 303 292 293 291 327 350 343 338 356 356 350 343 344 336
92 66 11 8 16 20 11 6 2 354 344 347 346 343 344 338 334 327 325 320 321 316 305 293 289 291 286 281 291 287 281 279 266 345 319 336 343 351 352 350 345 341 330
88 8 16 27 10 13 38 5 0 360 351 359 3 352 340 334 335 318 337 330 314 331 323 315 298 305 296 284 283 300 293 318 330 330 316 323 336 321 330 340 338 326 327
352 6 27 14 39 18 353 355 4 5 2 356 356 351 350 340 310 342 334 339 344 343 340 344 335 346 316 306 7 18 355 0 334 325 319 306 312 322 327 326 333 309 326
5 37 16 33 355 352 8 11 357 350 358 350 349 348 348 353 2 349 347 346 340 352 342 341 337 346 335 7 71 3 0 330 311 325 314 304 315 329 314 327 335 316 327
41 7 19 5 6 14 12 355 354 347 341 335 338 345 348 346 333 333 332 335 332 341 353 346 343 354 342 346 262 279 291 305 318 339 334 322 321 311 321 327 334 294 315
58 16 2 20 10 14 6 351 346 342 346 349 349 356 350 350 356 354 345 332 316 310 310 341 335 347 326 257 261 268 293 322 320 351 349 319 313 314 321 334 344 321 323
24 22 31 45 8 1 356 358 349 360 354 348 352 351 351 1 2 17 18 21 20 14 10 339 337 321 302 294 291 285 295 302 297 326 321 322 310 314 324 338 342 346 7
38 54 20 4 5 4 358 353 355 348 343 345 349 357 7 359 358 5 6 354 4 359 346 329 338 328 321 312 305 308 294 262 299 241 284 308 305 310 315 324 344 353 64
45 17 9 4 354 358 358 350 346 346 354 3 8 6 0 350 344 345 342 338 343 347 349 344 3 28 24 29 24 59 82 99 9 318 330 328 335 359 5 18 39 55 77
14 8 4 349 347 354 352 359 358 7 6 7 359 355 354 353 352 351 353 359 12 15 25 42 44 43 31 46 61 69 77 82 2 349 1 4 19 58 57 65 82 96 100
11 4 11 356 3 356 352 355 2 1 3 9 10 358 5 19 20 17 28 41 49 53 64 66 53 34 31 47 58 53 15 352 8 25 45 73 72 60 73 86 98 102 87
12 7 357 345 341 352 357 358 6 3 8 19 8 12 27 23 24 49 60 65 50 45 34 35 32 27 53 57 65 65 77 69 81 75 78 79 78 84 86 91 99 97 82
1 1 1 18 23 6 358 18 33 26 19 25 36 34 34 41 54 66 58 39 46 52 49 44 56 63 65 68 70 76 86 85 81 73 75 78 81 86 91 92 90 88 80
9 15 21 22 22 22 26 32 31 27 39 52 43 44 53 54 61 62 53 51 55 61 64 66 72 75 74 72 74 76 81 74 66 63 65 67 78 87 84 77 75 68 83
10 15 32 44 32 29 35 45 50 52 43 62 59 60 64 61 59 60 60 67 67 68 69 73 73 71 68 68 75 76 76 68 72 70 68 69 79 87 91 84 79 92 92
33 40 49 46 38 39 44 52 49 51 76 77 70 63 56 57 60 63 67 68 66 66 71 67 70 72 73 75 75 79 83 86 85 82 82 87 89 89 82 75 76 73 74
26 46 37 31 31 42 61 53 53 62 84 73 62 55 48 49 47 54 56 62 65 70 75 80 81 88 88 85 85 86 80 71 70 72 78 76 69 65 63 60 54 50 51
60 36 28 29 40 63 69 51 56 67 74 64 63 56 50 48 60 69 74 74 82 98 100 92 92 90 92 80 70 70 61 54 59 68 69 69 68 65 63 62 61 66 62
Wind_Speed_850mb
39 39 36 34 35 32 26 19 11 5 4 10 14 6 32 32 29 23 24 28 32 39 42 36 42 49 47 54 57 40 32 27 31 35 42 36 17 1 25 21 19 21 29
44 39 34 35 35 27 24 19 13 10 15 10 13 25 26 19 20 21 24 26 28 35 26 36 38 39 47 50 38 26 27 27 28 31 27 29 20 42 27 27 17 24 31
42 43 39 31 29 28 21 17 11 7 2 10 15 19 19 26 28 40 31 28 28 27 34 36 35 34 39 47 27 19 23 27 25 25 22 14 14 55 36 35 28 28 27
40 37 36 32 25 30 18 19 20 10 20 21 24 30 26 21 33 33 36 34 35 39 29 30 27 28 36 34 24 21 21 19 23 29 23 20 20 20 31 46 37 26 27
41 30 28 22 21 19 19 20 19 24 23 25 31 43 40 35 41 43 41 29 25 24 26 26 21 28 33 27 26 20 22 19 23 25 29 27 27 27 34 42 52 36 35
41 37 35 33 31 31 31 32 33 30 45 41 39 27 30 35 41 40 34 26 17 25 23 22 27 28 34 22 19 23 24 22 21 24 20 18 24 30 33 40 49 38 37
35 29 28 34 28 28 29 27 29 42 38 34 30 33 34 35 35 39 37 34 32 31 29 25 26 27 25 25 23 23 21 18 19 18 18 15 14 23 28 34 37 37 35
29 24 24 35 25 25 24 34 34 29 29 37 32 30 40 37 39 34 33 35 32 25 21 27 24 22 25 22 26 24 16 16 15 14 19 22 21 14 18 28 30 36 34
20 10 22 23 23 27 25 32 26 37 47 45 38 39 37 38 39 35 36 33 35 33 30 32 31 32 31 25 26 18 15 14 10 9 12 20 16 15 22 27 25 23 25
11 22 22 20 38 38 21 25 39 43 38 39 40 42 44 45 36 36 39 40 36 40 35 28 24 23 21 22 12 9 9 7 7 15 16 16 20 17 23 31 34 23 23
9 18 17 25 17 15 32 43 37 34 39 40 43 42 43 53 47 28 28 31 28 27 32 32 24 17 13 7 5 4 6 12 16 19 19 14 17 22 30 36 43 17 20
8 13 22 17 26 41 31 35 35 36 39 44 45 42 42 45 41 28 28 31 28 26 30 28 22 18 17 11 10 5 4 10 15 19 15 11 16 23 33 35 35 17 20
10 15 15 29 38 29 32 28 36 37 34 38 37 43 45 43 41 36 27 22 27 23 25 28 21 15 13 4 4 8 12 16 19 19 11 12 17 25 32 33 27 9 14
25 25 34 28 25 20 21 35 41 34 43 42 36 46 42 44 34 28 24 22 26 27 19 19 15 15 11 9 18 20 21 14 11 9 11 15 21 31 25 29 18 12 11
28 26 27 23 27 33 33 39 36 43 37 40 35 34 38 37 33 28 26 23 25 21 11 15 15 13 14 18 26 26 23 18 11 5 11 16 24 19 24 20 19 13 7
25 28 27 31 36 37 37 38 37 37 39 35 36 35 29 33 32 30 27 28 24 18 15 20 21 21 19 21 21 21 13 5 3 6 11 15 19 23 22 12 10 8 7
27 32 34 33 38 40 31 33 35 33 33 32 33 34 35 39 38 33 30 28 24 21 20 24 21 17 15 16 17 14 13 9 2 8 14 18 12 9 8 5 5 7 11
34 34 30 31 34 34 36 33 31 34 35 32 30 31 44 41 37 37 33 28 28 23 15 18 21 19 19 18 23 21 17 11 12 16 10 13 12 11 9 12 15 21 19
30 30 24 27 27 27 33 33 29 37 34 30 31 42 43 36 38 40 38 29 29 30 29 27 26 28 26 18 12 11 8 10 13 14 15 18 14 14 19 21 23 24 23
31 30 29 27 28 31 34 30 31 31 30 28 39 35 39 38 38 39 44 45 40 34 30 26 26 28 25 24 20 20 20 19 27 27 24 22 22 26 28 25 23 26 21
24 27 29 29 32 35 37 31 27 34 30 30 30 37 36 39 40 35 35 38 38 36 34 31 30 32 33 33 30 28 35 40 39 37 34 33 29 28 28 28 25 22 20
32 35 27 29 29 32 33 32 31 28 26 28 32 33 36 41 39 34 30 33 34 39 42 44 45 47 49 50 48 45 40 39 37 38 37 31 23 20 23 25 17 16 28
26 33 26 31 32 32 32 36 34 32 31 35 38 37 37 37 39 36 38 41 40 42 43 43 39 35 36 37 37 37 38 37 50 51 47 43 39 42 59 64 65 58 59
30 32 33 33 35 35 32 29 32 29 36 46 48 50 51 46 41 39 40 36 33 37 38 42 43 40 39 38 38 39 54 75 61 64 74 74 71 56 51 49 46 39 39
23 24 28 26 31 32 34 36 31 29 36 38 36 36 36 37 37 39 40 41 43 44 55 59 59 69 85 90 85 71 59 54 53 50 48 45 46 48 48 45 42 38 34
20 20 21 23 31 29 31 34 31 26 33 33 33 33 33 32 34 39 42 42 48 71 65 63 68 70 69 57 50 44 40 37 39 43 47 48 48 46 45 40 36 36 35
Wind_Direction_850mb
94 93 105 123 130 125 133 138 153 185 191 180 205 255 330 318 306 311 307 300 295 297 296 297 318 321 325 334 334 332 338 348 350 343 346 1 2 182 355 5 7 1 343
93 87 89 93 109 116 120 121 121 144 189 245 272 339 346 353 339 318 305 297 288 291 287 315 315 321 326 332 331 332 338 344 353 351 347 346 5 344 2 5 20 348 6
96 102 108 110 121 117 111 82 82 62 336 343 323 330 329 323 322 322 306 310 308 296 304 312 303 316 320 329 319 318 333 336 357 353 344 343 331 334 337 355 354 347 358
93 104 108 116 100 106 93 67 58 46 7 2 349 341 322 324 320 314 317 315 309 309 296 291 305 302 318 326 306 310 315 334 332 347 348 342 342 350 324 346 357 345 355
94 85 73 66 56 47 46 39 34 36 27 15 357 339 328 320 313 313 313 301 291 299 314 308 300 303 317 316 300 310 314 321 321 332 325 346 357 358 347 341 355 11 13
72 74 67 57 48 37 27 16 6 0 343 342 354 343 319 319 319 320 311 312 305 313 313 303 309 322 326 313 314 316 313 311 312 321 334 359 341 337 335 340 350 349 8
75 66 55 35 29 23 21 16 5 2 3 350 336 321 320 328 319 316 316 315 311 293 308 307 313 314 321 316 319 311 311 309 299 321 350 350 331 324 323 339 340 340 352
81 65 38 13 17 13 15 357 1 0 348 342 340 336 335 328 326 323 321 323 317 311 309 307 295 305 303 302 299 303 292 293 291 327 350 343 338 356 356 350 343 344 336
92 66 11 8 16 20 11 6 2 354 344 347 346 343 344 338 334 327 325 320 321 316 305 293 289 291 286 281 291 287 281 279 266 345 319 336 343 351 352 350 345 341 330
88 8 16 27 10 13 38 5 0 360 351 359 3 352 340 334 335 318 337 330 314 331 323 315 298 305 296 284 283 300 293 318 330 330 316 323 336 321 330 340 338 326 327
352 6 27 14 39 18 353 355 4 5 2 356 356 351 350 340 310 342 334 339 344 343 340 344 335 346 316 306 7 18 355 0 334 325 319 306 312 322 327 326 333 309 326
5 37 16 33 355 352 8 11 357 350 358 350 349 348 348 353 2 349 347 346 340 352 342 341 337 346 335 7 71 3 0 330 311 325 314 304 315 329 314 327 335 316 327
41 7 19 5 6 14 12 355 354 347 341 335 338 345 348 346 333 333 332 335 332 341 353 346 343 354 342 346 262 279 291 305 318 339 334 322 321 311 321 327 334 294 315
58 16 2 20 10 14 6 351 346 342 346 349 349 356 350 350 356 354 345 332 316 310 310 341 335 347 326 257 261 268 293 322 320 351 349 319 313 314 321 334 344 321 323
24 22 31 45 8 1 356 358 349 360 354 348 352 351 351 1 2 17 18 21 20 14 10 339 337 321 302 294 291 285 295 302 297 326 321 322 310 314 324 338 342 346 7
38 54 20 4 5 4 358 353 355 348 343 345 349 357 7 359 358 5 6 354 4 359 346 329 338 328 321 312 305 308 294 262 299 241 284 308 305 310 315 324 344 353 64
45 17 9 4 354 358 358 350 346 346 354 3 8 6 0 350 344 345 342 338 343 347 349 344 3 28 24 29 24 59 82 99 9 318 330 328 335 359 5 18 39 55 77
14 8 4 349 347 354 352 359 358 7 6 7 359 355 354 353 352 351 353 359 12 15 25 42 44 43 31 46 61 69 77 82 2 349 1 4 19 58 57 65 82 96 100
11 4 11 356 3 356 352 355 2 1 3 9 10 358 5 19 20 17 28 41 49 53 64 66 53 34 31 47 58 53 15 352 8 25 45 73 72 60 73 86 98 102 87
12 7 357 345 341 352 357 358 6 3 8 19 8 12 27 23 24 49 60 65 50 45 34 35 32 27 53 57 65 65 77 69 81 75 78 79 78 84 86 91 99 97 82
1 1 1 18 23 6 358 18 33 26 19 25 36 34 34 41 54 66 58 39 46 52 49 44 56 63 65 68 70 76 86 85 81 73 75 78 81 86 91 92 90 88 80
9 15 21 22 22 22 26 32 31 27 39 52 43 44 53 54 61 62 53 51 55 61 64 66 72 75 74 72 74 76 81 74 66 63 65 67 78 87 84 77 75 68 83
10 15 32 44 32 29 35 45 50 52 43 62 59 60 64 61 59 60 60 67 67 68 69 73 73 71 68 68 75 76 76 68 72 70 68 69 79 87 91 84 79 92 92
33 40 49 46 38 39 44 52 49 51 76 77 70 63 56 57 60 63 67 68 66 66 71 67 70 72 73 75 75 79 83 86 85 82 82 87 89 89 82 75 76 73 74
26 46 37 31 31 42 61 53 53 62 84 73 62 55 48 49 47 54 56 62 65 70 75 80 81 88 88 85 85 86 80 71 70 72 78 76 69 65 63 60 54 50 51
60 36 28 29 40 63 69 51 56 67 74 64 63 56 50 48 60 69 74 74 82 98 100 92 92 90 92 80 70 70 61 54 59 68 69 69 68 65 63 62 61 66 62